Flag for Germany Weather past 2 weeks in Nürburg, Rhineland-Palatinate, Germany

Now
70 °F

Clear.


Feels Like: 77 °F
Forecast: 56 / 70 °F
Wind: 2 mph from Southeast

Location: Nuerburg-Barweiler

Current Time: Aug 4, 2015 at 1:40:22 AM

Latest Report: Aug 4, 2015 at 1:00 AM


Visibility: 34 mi

Pressure: 29.92 "Hg (27.91 "Hg at 601m altitude)

Humidity: 51%

Dew point: 51 °F

Location of NürburgLocation

Historic Weather in Nürburg — Graph

°F

Nürburg temperature yesterday

Maximum temperature yesterday: 85 °F (at 4:00 PM)
Minimum temperature yesterday: 61 °F (at 4:00 AM)
Average temperature yesterday: 75 °F

Past Weeks' High & Low Weather Summary

 TemperatureHumidityPressure
High85 °F (Aug 3, 4:00 PM)99% (Jul 22, 5:00 AM)30.16 "Hg (Jul 22, 5:00 AM)
Low46 °F (Jul 30, 7:00 AM)28% (Aug 3, 6:00 PM)29.59 "Hg (Jul 25, 7:00 AM)
Average62 °F69%29.91 "Hg
* Reported Jul 19 10:00 PM — Aug 3 10:00 PM, Nürburg, Weather by CustomWeather, © 2015

Note: Actual official high and low records may vary slightly from our data, if they occured in-between our weather recording intervals... More about our weather records

Advertising

Nürburg weather history for previous 24 hours

 ConditionsComfort  
Time TempWeatherWind HumidityBarometerVisibility
10:00 PM
Mon, Aug 3
79 °FOvercast.3 mph36%29.91 "Hg37 mi
9:00 PM79 °FOvercast.2 mph37%29.91 "Hg34 mi
8:00 PM83 °FPartly sunny.2 mph32%29.90 "Hg43 mi
7:00 PM84 °FPartly sunny.2 mph30%29.90 "Hg40 mi
6:00 PM85 °FPartly sunny.3 mph28%29.91 "Hg19 mi
5:00 PM85 °FPassing clouds.5 mph30%29.92 "Hg37 mi
4:00 PM85 °FPassing clouds.5 mph31%29.93 "Hg37 mi
3:00 PM84 °FPassing clouds.6 mph31%29.94 "Hg37 mi
2:00 PM82 °FPassing clouds.5 mph33%29.95 "Hg37 mi
1:00 PM81 °FPassing clouds.3 mph34%29.97 "Hg37 mi
12:00 PM80 °FPassing clouds.5 mph38%29.97 "Hg37 mi
11:00 AM79 °FPassing clouds.3 mph43%29.98 "Hg37 mi
10:00 AM75 °FPassing clouds.2 mph45%29.98 "Hg34 mi
9:00 AM71 °FPassing clouds.2 mph51%30.00 "Hg34 mi
8:00 AM66 °FPassing clouds.2 mph55%30.01 "Hg34 mi
7:00 AM62 °FPassing clouds.2 mph60%30.02 "Hg34 mi
6:00 AM62 °FPassing clouds.2 mph57%30.02 "Hg19 mi
5:00 AM62 °FOvercast.3 mph58%30.02 "Hg25 mi
4:00 AM61 °FOvercast.2 mph64%30.03 "Hg22 mi
3:00 AM63 °FPassing clouds.2 mph58%30.04 "Hg25 mi
2:00 AM69 °FPassing clouds.3 mph46%30.02 "Hg25 mi
1:00 AM69 °FOvercast.3 mph45%30.03 "Hg28 mi
Weather by CustomWeather, © 2015

See weather overviewHow to use our weather pages